| time (UTC) | temp F | wind direction | speed knots | gust knots | rain 1hr in | rain 24hr in | rain mn in | humidity % | barometer mb |
| 20260509004549 | 58 | 306 | 3.5 | 7.8 | 0.00 | 0.01 | 0.01 | 82 | 1016.8 |
| 20260509004044 | 58 | 297 | 4.3 | 8.7 | 0.00 | 0.01 | 0.01 | 82 | 1016.9 |
| 20260509003544 | 58 | 304 | 3.5 | 8.7 | 0.00 | 0.01 | 0.01 | 82 | 1017.0 |
| 20260509003048 | 58 | 296 | 5.2 | 8.7 | 0.00 | 0.01 | 0.01 | 82 | 1016.9 |
| 20260509002543 | 58 | 302 | 6.1 | 9.6 | 0.00 | 0.01 | 0.01 | 82 | 1017.0 |
| 20260509002043 | 58 | 308 | 5.2 | 9.6 | 0.00 | 0.01 | 0.01 | 81 | 1017.0 |
| 20260509001549 | 58 | 298 | 5.2 | 9.6 | 0.00 | 0.01 | 0.01 | 80 | 1017.1 |
| 20260509001044 | 59 | 294 | 6.1 | 8.7 | 0.00 | 0.01 | 0.01 | 80 | 1017.0 |
| 20260509000543 | 59 | 302 | 4.3 | 9.6 | 0.00 | 0.01 | 0.01 | 79 | 1017.1 |
| 20260509000052 | 60 | 308 | 5.2 | 9.6 | 0.00 | 0.01 | 0.01 | 78 | 1017.0 |
| 20260508235543 | 60 | 313 | 7.0 | 9.6 | 0.00 | 0.01 | 0.01 | 78 | 1017.0 |
| 20260508235044 | 60 | 298 | 7.0 | 9.6 | 0.00 | 0.01 | 0.01 | 78 | 1017.1 |
| 20260508234556 | 61 | 315 | 7.0 | 9.6 | 0.00 | 0.01 | 0.01 | 77 | 1017.1 |
| 20260508234045 | 61 | 311 | 7.0 | 9.6 | 0.00 | 0.01 | 0.01 | 77 | 1017.2 |
| 20260508233543 | 61 | 304 | 6.1 | 8.7 | 0.00 | 0.01 | 0.01 | 77 | 1017.2 |
| 20260508233054 | 62 | 296 | 5.2 | 7.8 | 0.00 | 0.01 | 0.01 | 76 | 1017.2 |
| 20260508232546 | 62 | 300 | 5.2 | 8.7 | 0.00 | 0.01 | 0.01 | 76 | 1017.3 |
| 20260508232043 | 62 | 309 | 5.2 | 8.7 | 0.00 | 0.01 | 0.01 | 76 | 1017.3 |
| 20260508231635 | 62 | 306 | 6.1 | 8.7 | 0.00 | 0.01 | 0.01 | 76 | 1017.3 |
| 20260508231044 | 62 | 322 | 5.2 | 7.8 | 0.00 | 0.01 | 0.01 | 76 | 1017.3 |
| 20260508230544 | 62 | 323 | 5.2 | 7.8 | 0.00 | 0.01 | 0.01 | 77 | 1017.4 |
| 20260508230059 | 62 | 306 | 5.2 | 9.6 | 0.00 | 0.01 | 0.01 | 77 | 1017.4 |
| 20260508225543 | 61 | 300 | 5.2 | 9.6 | 0.00 | 0.01 | 0.01 | 77 | 1017.5 |
| 20260508225045 | 61 | 296 | 5.2 | 9.6 | 0.00 | 0.01 | 0.01 | 77 | 1017.5 |
| 20260508224550 | 61 | 307 | 5.2 | 9.6 | 0.00 | 0.01 | 0.01 | 77 | 1017.6 |
| 20260508224043 | 62 | 305 | 6.1 | 10.4 | 0.00 | 0.01 | 0.01 | 76 | 1017.6 |
| 20260508223544 | 62 | 298 | 7.0 | 10.4 | 0.00 | 0.01 | 0.01 | 76 | 1017.7 |
| 20260508223049 | 62 | 307 | 5.2 | 8.7 | 0.00 | 0.01 | 0.01 | 76 | 1017.7 |
| 20260508222544 | 62 | 304 | 5.2 | 8.7 | 0.00 | 0.01 | 0.01 | 78 | 1017.8 |
| 20260508222044 | 62 | 292 | 6.1 | 8.7 | 0.00 | 0.01 | 0.01 | 77 | 1017.9 |
| 20260508221550 | 62 | 284 | 5.2 | 7.8 | 0.00 | 0.01 | 0.01 | 77 | 1018.0 |
| 20260508221044 | 62 | 303 | 4.3 | 7.8 | 0.00 | 0.01 | 0.01 | 77 | 1018.0 |
| 20260508220544 | 62 | 291 | 3.5 | 7.0 | 0.00 | 0.01 | 0.01 | 77 | 1018.0 |
| 20260508220048 | 62 | 296 | 4.3 | 7.0 | 0.00 | 0.01 | 0.01 | 78 | 1018.1 |
| 20260508215543 | 61 | 290 | 3.5 | 7.8 | 0.00 | 0.01 | 0.01 | 78 | 1018.1 |
| 20260508215045 | 61 | 298 | 4.3 | 7.8 | 0.00 | 0.01 | 0.01 | 78 | 1018.2 |
| 20260508214618 | 61 | 306 | 4.3 | 7.8 | 0.00 | 0.01 | 0.01 | 79 | 1018.2 |
| 20260508214047 | 61 | 306 | 4.3 | 7.8 | 0.00 | 0.01 | 0.01 | 80 | 1018.3 |
| 20260508213543 | 61 | 296 | 4.3 | 7.0 | 0.00 | 0.01 | 0.01 | 79 | 1018.4 |
| 20260508213053 | 61 | 305 | 3.5 | 7.8 | 0.00 | 0.01 | 0.01 | 79 | 1018.3 |
| 20260508212543 | 60 | 294 | 3.5 | 7.8 | 0.00 | 0.01 | 0.01 | 80 | 1018.4 |
| 20260508212046 | 60 | 312 | 4.3 | 8.7 | 0.00 | 0.01 | 0.01 | 80 | 1018.5 |
| 20260508211550 | 60 | 296 | 4.3 | 8.7 | 0.00 | 0.01 | 0.01 | 79 | 1018.5 |
| 20260508211044 | 60 | 313 | 6.1 | 8.7 | 0.00 | 0.01 | 0.01 | 80 | 1018.5 |
| 20260508210544 | 60 | 319 | 4.3 | 7.8 | 0.00 | 0.01 | 0.01 | 80 | 1018.6 |
| 20260508210054 | 61 | 306 | 4.3 | 7.8 | 0.00 | 0.01 | 0.01 | 80 | 1018.6 |
| 20260508205543 | 61 | 303 | 4.3 | 7.8 | 0.00 | 0.01 | 0.01 | 81 | 1018.5 |
| 20260508205044 | 60 | 295 | 3.5 | 7.0 | 0.00 | 0.01 | 0.01 | 81 | 1018.7 |
| 20260508204549 | 60 | 299 | 3.5 | 7.0 | 0.00 | 0.01 | 0.01 | 81 | 1018.7 |
| 20260508204043 | 60 | 331 | 2.6 | 7.0 | 0.00 | 0.01 | 0.01 | 82 | 1018.8 |
| 20260508203544 | 60 | 300 | 3.5 | 7.0 | 0.00 | 0.01 | 0.01 | 83 | 1018.7 |
| 20260508203106 | 59 | 313 | 3.5 | 7.0 | 0.00 | 0.01 | 0.01 | 83 | 1018.7 |
| 20260508202544 | 59 | 300 | 3.5 | 7.0 | 0.00 | 0.01 | 0.01 | 84 | 1018.7 |
| 20260508202043 | 58 | 312 | 3.5 | 6.1 | 0.00 | 0.01 | 0.01 | 85 | 1018.8 |
| 20260508201549 | 58 | 331 | 2.6 | 7.8 | 0.00 | 0.01 | 0.01 | 85 | 1018.7 |
| 20260508201043 | 57 | 304 | 3.5 | 7.8 | 0.00 | 0.01 | 0.01 | 85 | 1018.7 |
| 20260508200543 | 57 | 306 | 4.3 | 7.8 | 0.00 | 0.01 | 0.01 | 85 | 1018.8 |
| 20260508200049 | 57 | 300 | 4.3 | 8.7 | 0.00 | 0.01 | 0.01 | 85 | 1018.8 |
| 20260508195543 | 57 | 300 | 5.2 | 8.7 | 0.00 | 0.01 | 0.01 | 86 | 1018.8 |
| 20260508195044 | 57 | 296 | 5.2 | 8.7 | 0.00 | 0.01 | 0.01 | 85 | 1018.9 |
| 20260508194554 | 56 | 296 | 5.2 | 8.7 | 0.00 | 0.01 | 0.01 | 85 | 1018.8 |
| 20260508194043 | 56 | 308 | 4.3 | 7.8 | 0.00 | 0.01 | 0.01 | 86 | 1018.8 |
| 20260508193543 | 56 | 307 | 4.3 | 7.8 | 0.00 | 0.01 | 0.01 | 87 | 1018.9 |
| 20260508193110 | 56 | 299 | 4.3 | 7.8 | 0.00 | 0.01 | 0.01 | 87 | 1018.9 |
| 20260508192544 | 56 | 305 | 3.5 | 6.1 | 0.00 | 0.01 | 0.01 | 88 | 1018.8 |
| 20260508192044 | 55 | 301 | 2.6 | 7.0 | 0.00 | 0.01 | 0.01 | 89 | 1018.9 |
| 20260508191549 | 55 | 306 | 3.5 | 7.8 | 0.00 | 0.01 | 0.01 | 89 | 1018.8 |
| 20260508191043 | 55 | 306 | 3.5 | 7.8 | 0.00 | 0.01 | 0.01 | 89 | 1018.9 |
| 20260508190545 | 55 | 298 | 3.5 | 7.8 | 0.00 | 0.01 | 0.01 | 90 | 1019.1 |
| 20260508190047 | 54 | 310 | 4.3 | 8.7 | 0.00 | 0.01 | 0.01 | 90 | 1019.0 |
| 20260508185544 | 54 | 298 | 4.3 | 8.7 | 0.00 | 0.01 | 0.01 | 91 | 1019.1 |
| 20260508185044 | 54 | 300 | 5.2 | 8.7 | 0.00 | 0.01 | 0.01 | 92 | 1019.2 |
| 20260508184546 | 54 | 325 | 5.2 | 8.7 | 0.00 | 0.01 | 0.01 | 93 | 1019.2 |
| 20260508184045 | 54 | 308 | 6.1 | 8.7 | 0.00 | 0.01 | 0.01 | 94 | 1019.1 |
| 20260508183544 | 53 | 318 | 5.2 | 8.7 | 0.00 | 0.01 | 0.01 | 95 | 1019.2 |
| 20260508183059 | 53 | 313 | 4.3 | 7.8 | 0.00 | 0.01 | 0.01 | 95 | 1019.2 |
| 20260508182544 | 53 | 309 | 4.3 | 8.7 | 0.00 | 0.01 | 0.01 | 96 | 1019.1 |
| 20260508182044 | 53 | 321 | 4.3 | 8.7 | 0.00 | 0.01 | 0.01 | 96 | 1019.2 |
| 20260508181553 | 52 | 311 | 5.2 | 8.7 | 0.00 | 0.01 | 0.01 | 96 | 1019.2 |
| 20260508181044 | 52 | 305 | 5.2 | 7.8 | 0.00 | 0.01 | 0.01 | 96 | 1019.3 |
| 20260508180545 | 52 | 299 | 4.3 | 7.8 | 0.00 | 0.01 | 0.01 | 97 | 1019.2 |
| 20260508180058 | 51 | 308 | 4.3 | 7.0 | 0.00 | 0.01 | 0.01 | 96 | 1019.3 |
| 20260508175544 | 51 | 310 | 3.5 | 7.8 | 0.00 | 0.01 | 0.01 | 97 | 1019.3 |
| 20260508175045 | 51 | 302 | 3.5 | 7.8 | 0.00 | 0.01 | 0.01 | 97 | 1019.3 |
| 20260508174602 | 51 | 308 | 4.3 | 7.8 | 0.00 | 0.01 | 0.01 | 96 | 1019.2 |
| 20260508174044 | 51 | 300 | 3.5 | 7.0 | 0.00 | 0.01 | 0.01 | 96 | 1019.2 |
| 20260508173546 | 51 | 308 | 3.5 | 7.8 | 0.00 | 0.01 | 0.01 | 97 | 1019.2 |
| 20260508173048 | 50 | 304 | 3.5 | 7.8 | 0.00 | 0.01 | 0.01 | 97 | 1019.2 |
| 20260508172544 | 50 | 310 | 3.5 | 7.8 | 0.00 | 0.01 | 0.01 | 96 | 1019.3 |
| 20260508172044 | 50 | 311 | 3.5 | 7.8 | 0.00 | 0.01 | 0.01 | 96 | 1019.2 |
| 20260508171547 | 50 | 309 | 3.5 | 7.0 | 0.00 | 0.01 | 0.01 | 96 | 1019.3 |
| 20260508171051 | 50 | 322 | 2.6 | 6.1 | 0.00 | 0.01 | 0.01 | 97 | 1019.3 |
| 20260508170544 | 50 | 306 | 2.6 | 6.1 | 0.00 | 0.01 | 0.01 | 97 | 1019.3 |
| 20260508170048 | 50 | 313 | 2.6 | 4.3 | 0.00 | 0.01 | 0.01 | 96 | 1019.2 |
| 20260508165546 | 49 | 304 | 0.9 | 4.3 | 0.00 | 0.01 | 0.01 | 96 | 1019.1 |
| 20260508165044 | 49 | 304 | 1.7 | 4.3 | 0.00 | 0.01 | 0.01 | 97 | 1018.9 |
| 20260508164603 | 49 | 302 | 1.7 | 4.3 | 0.00 | 0.01 | 0.01 | 96 | 1019.0 |
| 20260508164044 | 49 | 316 | 1.7 | 4.3 | 0.00 | 0.01 | 0.01 | 96 | 1019.1 |
| 20260508163547 | 48 | 315 | 1.7 | 3.5 | 0.00 | 0.01 | 0.01 | 96 | 1019.0 |
| 20260508163053 | 48 | 329 | 1.7 | 3.5 | 0.00 | 0.01 | 0.01 | 96 | 1019.0 |
| 20260508162544 | 48 | 331 | 1.7 | 3.5 | 0.00 | 0.01 | 0.01 | 96 | 1018.8 |
| 20260508162045 | 47 | 333 | 1.7 | 4.3 | 0.00 | 0.01 | 0.01 | 96 | 1018.9 |
| 20260508161553 | 47 | 313 | 1.7 | 5.2 | 0.00 | 0.01 | 0.01 | 96 | 1018.9 |
| 20260508161044 | 47 | 321 | 2.6 | 6.1 | 0.00 | 0.01 | 0.01 | 96 | 1018.9 |
| 20260508160547 | 47 | 309 | 2.6 | 6.1 | 0.00 | 0.01 | 0.01 | 96 | 1018.9 |
| 20260508160051 | 46 | 313 | 3.5 | 6.1 | 0.00 | 0.01 | 0.01 | 96 | 1018.9 |
| 20260508155549 | 46 | 311 | 2.6 | 6.1 | 0.00 | 0.01 | 0.01 | 96 | 1018.7 |
| 20260508155045 | 46 | 311 | 3.5 | 6.1 | 0.00 | 0.01 | 0.01 | 96 | 1018.6 |
| 20260508154553 | 46 | 317 | 2.6 | 4.3 | 0.00 | 0.01 | 0.01 | 96 | 1018.7 |
| 20260508154044 | 46 | 314 | 2.6 | 7.8 | 0.00 | 0.01 | 0.01 | 96 | 1018.7 |
| 20260508153545 | 45 | 294 | 3.5 | 7.8 | 0.00 | 0.01 | 0.01 | 96 | 1018.7 |
| 20260508153050 | 45 | 304 | 4.3 | 7.8 | 0.00 | 0.01 | 0.01 | 96 | 1018.7 |
| 20260508152545 | 45 | 311 | 3.5 | 6.1 | 0.00 | 0.01 | 0.01 | 96 | 1018.6 |
| 20260508152044 | 45 | 312 | 3.5 | 7.0 | 0.00 | 0.01 | 0.01 | 96 | 1018.6 |
| 20260508151554 | 45 | 312 | 3.5 | 8.7 | 0.00 | 0.01 | 0.01 | 96 | 1018.6 |
| 20260508151043 | 45 | 313 | 5.2 | 8.7 | 0.01 | 0.01 | 0.01 | 96 | 1018.6 |
| 20260508150544 | 45 | 306 | 5.2 | 8.7 | 0.01 | 0.01 | 0.01 | 96 | 1018.6 |
| 20260508150056 | 44 | 321 | 5.2 | 7.8 | 0.01 | 0.01 | 0.01 | 96 | 1018.5 |
| 20260508145543 | 45 | 309 | 5.2 | 9.6 | 0.01 | 0.01 | 0.01 | 96 | 1018.6 |
| 20260508145045 | 44 | 306 | 5.2 | 11.3 | 0.01 | 0.01 | 0.01 | 96 | 1018.6 |
| 20260508144555 | 44 | 321 | 7.8 | 11.3 | 0.01 | 0.01 | 0.01 | 96 | 1018.7 |
| 20260508144043 | 44 | 307 | 8.7 | 11.3 | 0.01 | 0.01 | 0.01 | 96 | 1018.5 |
| 20260508143542 | 44 | 315 | 7.8 | 11.3 | 0.01 | 0.01 | 0.01 | 96 | 1018.7 |
| 20260508143107 | 44 | 301 | 7.0 | 11.3 | 0.01 | 0.01 | 0.01 | 96 | 1018.7 |
| 20260508142544 | 44 | 309 | 7.8 | 11.3 | 0.01 | 0.01 | 0.01 | 96 | 1018.6 |
| 20260508142044 | 44 | 302 | 7.8 | 12.2 | 0.01 | 0.01 | 0.01 | 96 | 1018.4 |
| 20260508141555 | 44 | 299 | 8.7 | 12.2 | 0.01 | 0.01 | 0.01 | 96 | 1018.3 |
| 20260508141043 | 44 | 298 | 7.8 | 11.3 | 0.00 | 0.00 | 0.00 | 96 | 1018.2 |
| 20260508140543 | 44 | 298 | 7.0 | 10.4 | 0.00 | 0.00 | 0.00 | 96 | 1018.2 |
| 20260508140103 | 44 | 316 | 7.0 | 10.4 | 0.00 | 0.00 | 0.00 | 96 | 1018.1 |
| 20260508135544 | 44 | 300 | 6.1 | 8.7 | 0.00 | 0.00 | 0.00 | 96 | 1018.2 |
| 20260508135043 | 44 | 299 | 4.3 | 9.6 | 0.00 | 0.00 | 0.00 | 96 | 1018.1 |
| 20260508134555 | 44 | 300 | 6.1 | 12.2 | 0.00 | 0.00 | 0.00 | 96 | 1018.0 |
| 20260508134044 | 44 | 296 | 7.8 | 12.2 | 0.00 | 0.00 | 0.00 | 96 | 1018.0 |
| 20260508133543 | 44 | 315 | 7.0 | 12.2 | 0.00 | 0.00 | 0.00 | 96 | 1018.0 |
| 20260508133051 | 44 | 312 | 7.8 | 11.3 | 0.00 | 0.00 | 0.00 | 96 | 1017.9 |
| 20260508132546 | 44 | 311 | 7.8 | 12.2 | 0.00 | 0.00 | 0.00 | 96 | 1017.8 |
| 20260508132043 | 44 | 304 | 7.0 | 12.2 | 0.00 | 0.00 | 0.00 | 96 | 1017.7 |
| 20260508131552 | 43 | 311 | 7.8 | 11.3 | 0.00 | 0.00 | 0.00 | 96 | 1017.7 |
| 20260508131044 | 43 | 299 | 8.7 | 11.3 | 0.00 | 0.00 | 0.00 | 96 | 1017.7 |
| 20260508130544 | 43 | 298 | 6.1 | 9.6 | 0.00 | 0.00 | 0.00 | 96 | 1017.6 |
| 20260508130050 | 43 | 296 | 4.3 | 7.8 | 0.00 | 0.00 | 0.00 | 96 | 1017.6 |
| 20260508125544 | 43 | 296 | 5.2 | 7.8 | 0.00 | 0.00 | 0.00 | 96 | 1017.6 |
| 20260508125043 | 43 | 299 | 4.3 | 7.0 | 0.00 | 0.00 | 0.00 | 96 | 1017.6 |
| 20260508124552 | 43 | 299 | 2.6 | 6.1 | 0.00 | 0.00 | 0.00 | 96 | 1017.6 |
| 20260508124046 | 43 | 302 | 3.5 | 6.1 | 0.00 | 0.00 | 0.00 | 96 | 1017.6 |
| 20260508123543 | 43 | 299 | 2.6 | 7.8 | 0.00 | 0.00 | 0.00 | 96 | 1017.6 |
| 20260508123051 | 43 | 302 | 2.6 | 9.6 | 0.00 | 0.00 | 0.00 | 96 | 1017.7 |
| 20260508122545 | 43 | 301 | 4.3 | 9.6 | 0.00 | 0.00 | 0.00 | 96 | 1017.7 |
| 20260508122043 | 43 | 301 | 6.1 | 9.6 | 0.00 | 0.00 | 0.00 | 96 | 1017.7 |
| 20260508121548 | 44 | 295 | 7.0 | 10.4 | 0.00 | 0.00 | 0.00 | 96 | 1017.7 |
| 20260508121042 | 44 | 311 | 7.0 | 10.4 | 0.00 | 0.00 | 0.00 | 96 | 1017.8 |
| 20260508120544 | 44 | 304 | 6.1 | 9.6 | 0.00 | 0.00 | 0.00 | 96 | 1017.8 |
| 20260508120052 | 44 | 287 | 6.1 | 9.6 | 0.00 | 0.00 | 0.00 | 96 | 1017.9 |
| 20260508115545 | 44 | 296 | 4.3 | 10.4 | 0.00 | 0.00 | 0.00 | 96 | 1017.8 |
| 20260508115043 | 44 | 319 | 5.2 | 10.4 | 0.00 | 0.00 | 0.00 | 96 | 1017.7 |
| 20260508114604 | 43 | 305 | 6.1 | 10.4 | 0.00 | 0.00 | 0.00 | 96 | 1017.7 |
| 20260508114043 | 43 | 292 | 6.1 | 10.4 | 0.00 | 0.00 | 0.00 | 96 | 1017.7 |
| 20260508113544 | 43 | 303 | 7.8 | 10.4 | 0.00 | 0.00 | 0.00 | 96 | 1017.5 |
| 20260508113107 | 43 | 303 | 6.1 | 8.7 | 0.00 | 0.00 | 0.00 | 96 | 1017.5 |
| 20260508112546 | 43 | 300 | 5.2 | 8.7 | 0.00 | 0.00 | 0.00 | 96 | 1017.5 |
| 20260508112044 | 43 | 306 | 4.3 | 7.8 | 0.00 | 0.00 | 0.00 | 96 | 1017.5 |
| 20260508111600 | 43 | 300 | 5.2 | 7.8 | 0.00 | 0.00 | 0.00 | 96 | 1017.6 |
| 20260508111043 | 43 | 315 | 5.2 | 10.4 | 0.00 | 0.00 | 0.00 | 96 | 1017.7 |
| 20260508110545 | 44 | 292 | 5.2 | 10.4 | 0.00 | 0.00 | 0.00 | 96 | 1017.8 |
| 20260508110051 | 44 | 302 | 6.1 | 9.6 | 0.00 | 0.00 | 0.00 | 96 | 1017.8 |
| 20260508105546 | 44 | 301 | 5.2 | 9.6 | 0.00 | 0.00 | 0.00 | 96 | 1017.8 |
| 20260508105042 | 44 | 307 | 5.2 | 9.6 | 0.00 | 0.00 | 0.00 | 96 | 1017.9 |
| 20260508104553 | 44 | 296 | 5.2 | 9.6 | 0.00 | 0.00 | 0.00 | 95 | 1017.8 |
| 20260508104044 | 44 | 298 | 4.3 | 7.8 | 0.00 | 0.00 | 0.00 | 95 | 1017.8 |
| 20260508103549 | 44 | 315 | 5.2 | 8.7 | 0.00 | 0.00 | 0.00 | 95 | 1017.8 |
| 20260508103050 | 44 | 294 | 4.3 | 9.6 | 0.00 | 0.00 | 0.00 | 95 | 1017.7 |
| 20260508102543 | 44 | 295 | 6.1 | 9.6 | 0.00 | 0.00 | 0.00 | 95 | 1017.8 |
| 20260508102044 | 44 | 322 | 6.1 | 9.6 | 0.00 | 0.00 | 0.00 | 95 | 1017.8 |
| 20260508101553 | 44 | 300 | 6.1 | 8.7 | 0.00 | 0.00 | 0.00 | 95 | 1017.8 |
| 20260508101045 | 44 | 291 | 5.2 | 8.7 | 0.00 | 0.00 | 0.00 | 95 | 1017.7 |
| 20260508100547 | 44 | 315 | 4.3 | 7.8 | 0.00 | 0.00 | 0.00 | 95 | 1017.7 |
| 20260508100217 | 44 | 300 | 5.2 | 7.8 | 0.00 | 0.00 | 0.00 | 95 | 1017.7 |
| 20260508095544 | 44 | 298 | 4.3 | 7.8 | 0.00 | 0.00 | 0.00 | 95 | 1017.7 |
| 20260508095042 | 44 | 301 | 4.3 | 7.8 | 0.00 | 0.00 | 0.00 | 95 | 1017.7 |
| 20260508094553 | 44 | 297 | 1.7 | 3.5 | 0.00 | 0.00 | 0.00 | 95 | 1017.7 |
| 20260508094047 | 44 | 297 | 2.6 | 4.3 | 0.00 | 0.00 | 0.00 | 95 | 1017.7 |
| 20260508093543 | 44 | 296 | 2.6 | 4.3 | 0.00 | 0.00 | 0.00 | 95 | 1017.6 |
| 20260508093051 | 44 | 300 | 2.6 | 4.3 | 0.00 | 0.00 | 0.00 | 95 | 1017.6 |
| 20260508092543 | 44 | 304 | 2.6 | 4.3 | 0.00 | 0.00 | 0.00 | 95 | 1017.6 |
| 20260508092042 | 44 | 306 | 2.6 | 3.5 | 0.00 | 0.00 | 0.00 | 95 | 1017.6 |
| 20260508091604 | 44 | 306 | 2.6 | 3.5 | 0.00 | 0.00 | 0.00 | 95 | 1017.7 |
| 20260508091043 | 44 | 306 | 1.7 | 4.3 | 0.00 | 0.00 | 0.00 | 95 | 1017.7 |
| 20260508090543 | 44 | 306 | 1.7 | 4.3 | 0.00 | 0.00 | 0.00 | 95 | 1017.6 |
| 20260508090047 | 44 | 306 | 2.6 | 4.3 | 0.00 | 0.00 | 0.00 | 95 | 1017.7 |
| 20260508085543 | 45 | 300 | 2.6 | 7.0 | 0.00 | 0.00 | 0.00 | 95 | 1017.7 |
| 20260508085042 | 45 | 315 | 2.6 | 7.0 | 0.00 | 0.00 | 0.00 | 95 | 1017.7 |
| 20260508084548 | 45 | 304 | 3.5 | 7.0 | 0.00 | 0.00 | 0.00 | 95 | 1017.8 |
| 20260508084044 | 45 | 303 | 2.6 | 6.1 | 0.00 | 0.00 | 0.00 | 95 | 1017.8 |
| 20260508083543 | 45 | 306 | 2.6 | 7.8 | 0.00 | 0.00 | 0.00 | 95 | 1017.8 |
| 20260508083106 | 45 | 300 | 3.5 | 7.8 | 0.00 | 0.00 | 0.00 | 95 | 1017.8 |
| 20260508082543 | 45 | 298 | 4.3 | 7.0 | 0.00 | 0.00 | 0.00 | 95 | 1017.8 |
| 20260508082047 | 45 | 305 | 3.5 | 7.8 | 0.00 | 0.00 | 0.00 | 95 | 1017.8 |
| 20260508081556 | 45 | 299 | 2.6 | 7.8 | 0.00 | 0.00 | 0.00 | 95 | 1018.0 |
| 20260508081046 | 45 | 312 | 4.3 | 9.6 | 0.00 | 0.00 | 0.00 | 95 | 1018.0 |
| 20260508080543 | 45 | 318 | 4.3 | 9.6 | 0.00 | 0.00 | 0.00 | 95 | 1018.0 |
| 20260508080048 | 45 | 306 | 5.2 | 9.6 | 0.00 | 0.00 | 0.00 | 95 | 1017.9 |
| 20260508075543 | 45 | 298 | 5.2 | 8.7 | 0.00 | 0.00 | 0.00 | 95 | 1018.0 |
| 20260508075042 | 46 | 300 | 4.3 | 7.0 | 0.00 | 0.00 | 0.00 | 95 | 1018.0 |
| 20260508074548 | 46 | 298 | 3.5 | 7.0 | 0.00 | 0.00 | 0.00 | 95 | 1017.9 |
| 20260508074042 | 46 | 304 | 3.5 | 8.7 | 0.00 | 0.00 | 0.00 | 95 | 1017.9 |
| 20260508073544 | 46 | 304 | 3.5 | 9.6 | 0.00 | 0.00 | 0.00 | 95 | 1018.0 |
| 20260508073057 | 46 | 316 | 5.2 | 9.6 | 0.00 | 0.00 | 0.00 | 95 | 1018.0 |
| 20260508072544 | 46 | 298 | 5.2 | 9.6 | 0.00 | 0.00 | 0.00 | 95 | 1018.0 |
| 20260508072043 | 46 | 302 | 7.0 | 8.7 | 0.00 | 0.00 | 0.00 | 95 | 1018.0 |
| 20260508071549 | 46 | 312 | 6.1 | 8.7 | 0.00 | 0.00 | 0.00 | 95 | 1018.0 |
| 20260508071043 | 46 | 303 | 5.2 | 9.6 | 0.00 | 0.00 | 0.00 | 95 | 1018.0 |
| 20260508070543 | 46 | 323 | 6.1 | 9.6 | 0.00 | 0.00 | 0.00 | 95 | 1018.1 |
| 20260508070053 | 46 | 311 | 6.1 | 10.4 | 0.00 | 0.00 | 0.00 | 95 | 1018.0 |
| 20260508065543 | 46 | 325 | 7.0 | 10.4 | 0.00 | 0.00 | 0.00 | 95 | 1017.9 |
| 20260508065043 | 46 | 303 | 7.8 | 10.4 | 0.00 | 0.00 | 0.00 | 95 | 1018.0 |
| 20260508064555 | 46 | 309 | 7.0 | 10.4 | 0.00 | 0.00 | 0.00 | 95 | 1018.1 |
| 20260508064043 | 46 | 300 | 7.8 | 11.3 | 0.00 | 0.00 | 0.00 | 95 | 1018.1 |
| 20260508063543 | 47 | 312 | 7.0 | 11.3 | 0.00 | 0.00 | 0.00 | 95 | 1018.0 |
| 20260508063059 | 47 | 317 | 6.1 | 10.4 | 0.00 | 0.00 | 0.00 | 95 | 1018.0 |
| 20260508062542 | 47 | 308 | 6.1 | 8.7 | 0.00 | 0.00 | 0.00 | 94 | 1018.0 |
| 20260508062043 | 47 | 319 | 7.0 | 8.7 | 0.00 | 0.00 | 0.00 | 94 | 1018.1 |
| 20260508061551 | 47 | 310 | 5.2 | 7.8 | 0.00 | 0.00 | 0.00 | 94 | 1018.0 |
| 20260508061043 | 47 | 319 | 3.5 | 7.8 | 0.00 | 0.00 | 0.00 | 94 | 1018.0 |
| 20260508060544 | 47 | 306 | 5.2 | 8.7 | 0.00 | 0.00 | 0.00 | 94 | 1018.1 |
| 20260508060048 | 47 | 311 | 6.1 | 8.7 | 0.00 | 0.00 | 0.00 | 94 | 1018.1 |
| 20260508055545 | 47 | 307 | 4.3 | 7.0 | 0.00 | 0.00 | 0.00 | 94 | 1018.0 |
| 20260508055043 | 47 | 309 | 2.6 | 5.2 | 0.00 | 0.00 | 0.00 | 94 | 1018.0 |
| 20260508054553 | 47 | 324 | 3.5 | 5.2 | 0.00 | 0.00 | 0.00 | 94 | 1017.9 |
| 20260508054044 | 48 | 315 | 2.6 | 4.3 | 0.00 | 0.00 | 0.00 | 93 | 1017.9 |
| 20260508053543 | 48 | 315 | 2.6 | 5.2 | 0.00 | 0.00 | 0.00 | 94 | 1018.1 |
| 20260508053101 | 47 | 310 | 3.5 | 7.8 | 0.00 | 0.00 | 0.00 | 94 | 1017.9 |
| 20260508052543 | 48 | 320 | 4.3 | 7.8 | 0.00 | 0.00 | 0.00 | 94 | 1018.0 |
| 20260508052042 | 48 | 317 | 5.2 | 7.8 | 0.00 | 0.00 | 0.00 | 94 | 1018.0 |
| 20260508051549 | 48 | 306 | 4.3 | 7.0 | 0.00 | 0.00 | 0.00 | 94 | 1018.0 |
| 20260508051045 | 48 | 308 | 2.6 | 6.1 | 0.00 | 0.00 | 0.00 | 94 | 1017.9 |
| 20260508050543 | 48 | 315 | 2.6 | 6.1 | 0.00 | 0.00 | 0.00 | 94 | 1017.9 |
| 20260508050053 | 48 | 311 | 2.6 | 6.1 | 0.00 | 0.00 | 0.00 | 94 | 1017.8 |
| 20260508045542 | 48 | 312 | 2.6 | 6.1 | 0.00 | 0.00 | 0.00 | 94 | 1018.0 |
| 20260508045044 | 48 | 304 | 2.6 | 4.3 | 0.00 | 0.00 | 0.00 | 94 | 1017.9 |
| 20260508044549 | 48 | 307 | 2.6 | 4.3 | 0.00 | 0.00 | 0.00 | 93 | 1017.9 |
| 20260508044045 | 48 | 311 | 2.6 | 4.3 | 0.00 | 0.00 | 0.00 | 93 | 1017.9 |
| 20260508043543 | 48 | 307 | 2.6 | 4.3 | 0.00 | 0.00 | 0.00 | 93 | 1017.8 |
| 20260508043053 | 49 | 300 | 2.6 | 7.0 | 0.00 | 0.00 | 0.00 | 92 | 1017.9 |
| 20260508042542 | 49 | 304 | 2.6 | 7.0 | 0.00 | 0.00 | 0.00 | 92 | 1017.8 |
| 20260508042043 | 49 | 299 | 2.6 | 6.1 | 0.00 | 0.00 | 0.00 | 91 | 1017.9 |
| 20260508041548 | 49 | 311 | 3.5 | 6.1 | 0.00 | 0.00 | 0.00 | 90 | 1017.7 |
| 20260508041046 | 50 | 319 | 3.5 | 6.1 | 0.00 | 0.00 | 0.00 | 89 | 1017.6 |
| 20260508040543 | 51 | 304 | 2.6 | 4.3 | 0.00 | 0.00 | 0.00 | 86 | 1017.6 |
| 20260508040052 | 53 | 313 | 2.6 | 4.3 | 0.00 | 0.00 | 0.00 | 82 | 1017.6 |
| 20260508035543 | 54 | 318 | 3.5 | 7.0 | 0.00 | 0.00 | 0.00 | 79 | 1017.6 |
| 20260508035043 | 57 | 315 | 3.5 | 7.0 | 0.00 | 0.00 | 0.00 | 75 | 1017.6 |
| 20260508034552 | 59 | 312 | 4.3 | 7.0 | 0.00 | 0.00 | 0.00 | 69 | 1017.5 |
| 20260508034043 | 59 | 317 | 2.6 | 7.0 | 0.00 | 0.00 | 0.00 | 66 | 1017.5 |
| 20260508033543 | 58 | 318 | 4.3 | 7.0 | 0.00 | 0.00 | 0.00 | 67 | 1017.5 |
| 20260508033058 | 57 | 306 | 4.3 | 7.0 | 0.00 | 0.00 | 0.00 | 68 | 1017.5 |
| 20260508032544 | 56 | 321 | 3.5 | 5.2 | 0.00 | 0.00 | 0.00 | 75 | 1017.4 |
| 20260508032043 | 55 | 316 | 4.3 | 5.2 | 0.00 | 0.00 | 0.00 | 80 | 1017.4 |
| 20260508031546 | 54 | 318 | 3.5 | 5.2 | 0.00 | 0.00 | 0.00 | 81 | 1017.3 |
| 20260508031041 | 52 | 318 | 3.5 | 5.2 | 0.00 | 0.00 | 0.00 | 90 | 1017.3 |
| 20260508030540 | 52 | 317 | 2.6 | 5.2 | 0.00 | 0.00 | 0.00 | 90 | 1017.3 |
| 20260508030048 | 52 | 317 | 3.5 | 4.3 | 0.00 | 0.00 | 0.00 | 90 | 1017.2 |
| 20260508025542 | 52 | 319 | 1.7 | 3.5 | 0.00 | 0.00 | 0.00 | 89 | 1017.3 |
| 20260508025041 | 53 | 318 | 1.7 | 3.5 | 0.00 | 0.00 | 0.00 | 88 | 1017.2 |
| 20260508024557 | 54 | 318 | 1.7 | 3.5 | 0.00 | 0.00 | 0.00 | 88 | 1017.2 |
| 20260508024043 | 54 | 310 | 1.7 | 3.5 | 0.00 | 0.00 | 0.00 | 87 | 1017.2 |
| 20260508023541 | 54 | 310 | 0.9 | 3.5 | 0.00 | 0.00 | 0.00 | 87 | 1017.2 |
| 20260508023050 | 54 | 310 | 1.7 | 4.3 | 0.00 | 0.00 | 0.00 | 87 | 1017.3 |
| 20260508022540 | 55 | 310 | 1.7 | 4.3 | 0.00 | 0.00 | 0.00 | 86 | 1017.2 |
| 20260508022041 | 55 | 311 | 2.6 | 4.3 | 0.00 | 0.00 | 0.00 | 85 | 1017.2 |
| 20260508021550 | 56 | 311 | 2.6 | 4.3 | 0.00 | 0.00 | 0.00 | 85 | 1017.2 |
| 20260508021040 | 56 | 312 | 2.6 | 4.3 | 0.00 | 0.00 | 0.00 | 84 | 1017.2 |
| 20260508020547 | 56 | 316 | 2.6 | 4.3 | 0.00 | 0.00 | 0.00 | 84 | 1017.2 |
| 20260508020050 | 56 | 319 | 2.6 | 4.3 | 0.00 | 0.00 | 0.00 | 84 | 1017.3 |
| 20260508015545 | 56 | 312 | 2.6 | 7.0 | 0.00 | 0.00 | 0.00 | 83 | 1017.3 |
| 20260508015044 | 57 | 306 | 2.6 | 7.0 | 0.00 | 0.00 | 0.00 | 83 | 1017.3 |
| 20260508014600 | 57 | 314 | 4.3 | 7.0 | 0.00 | 0.00 | 0.00 | 83 | 1017.3 |
| 20260508014047 | 57 | 312 | 5.2 | 7.0 | 0.00 | 0.00 | 0.00 | 82 | 1017.3 |
| 20260508013545 | 57 | 318 | 4.3 | 7.0 | 0.00 | 0.00 | 0.00 | 82 | 1017.2 |
| 20260508013056 | 57 | 317 | 3.5 | 7.0 | 0.00 | 0.00 | 0.00 | 81 | 1017.3 |
| 20260508012550 | 58 | 319 | 3.5 | 7.8 | 0.00 | 0.00 | 0.00 | 82 | 1017.3 |
| 20260508012045 | 58 | 306 | 4.3 | 7.8 | 0.00 | 0.00 | 0.00 | 81 | 1017.4 |
| 20260508011608 | 58 | 310 | 4.3 | 7.0 | 0.00 | 0.00 | 0.00 | 81 | 1017.4 |
| 20260508011044 | 59 | 309 | 3.5 | 7.8 | 0.00 | 0.00 | 0.00 | 80 | 1017.4 |
| 20260508010544 | 59 | 310 | 4.3 | 8.7 | 0.00 | 0.00 | 0.00 | 80 | 1017.4 |
| 20260508010050 | 59 | 316 | 6.1 | 8.7 | 0.00 | 0.00 | 0.00 | 80 | 1017.5 |
| 20260508005546 | 59 | 309 | 5.2 | 8.7 | 0.00 | 0.00 | 0.00 | 79 | 1017.5 |
| 20260508005044 | 60 | 314 | 5.2 | 8.7 | 0.00 | 0.00 | 0.00 | 78 | 1017.4 |